Radiation Dose at Monitoring Post of Fukushima Daini Nuclear Power Station
Date,Time,MP-1(microSv/h),MP-2(microSv/h),MP-3(microSv/h),MP-4(microSv/h),MP-5(microSv/h),MP-6(microSv/h),MP-7(microSv/h),Wind Direction,Wind Velocity(m/s),Rain
2016/09/03,00:00,0.395,0.239,0.413,0.380,0.364,0.194,0.165,north,0.7,No
2016/09/03,00:10,0.394,0.236,0.416,0.382,0.362,0.195,0.165,north,1.6,No
2016/09/03,00:20,0.398,0.240,0.418,0.384,0.366,0.195,0.166,north,1.7,No
2016/09/03,00:30,0.396,0.239,0.416,0.382,0.365,0.194,0.166,north,2.6,No
2016/09/03,00:40,0.392,0.237,0.416,0.381,0.363,0.195,0.167,north,2.9,No
2016/09/03,00:50,0.396,0.239,0.418,0.384,0.368,0.195,0.167,north,2.9,No
2016/09/03,01:00,0.396,0.238,0.415,0.381,0.365,0.194,0.165,north,2.9,No
2016/09/03,01:10,0.392,0.238,0.416,0.382,0.363,0.196,0.167,north,2.8,No
2016/09/03,01:20,0.397,0.240,0.419,0.384,0.368,0.195,0.166,north,2.5,No
2016/09/03,01:30,0.397,0.240,0.416,0.382,0.364,0.195,0.166,north,2.4,No
2016/09/03,01:40,0.393,0.236,0.417,0.382,0.364,0.196,0.166,north,2.5,No
2016/09/03,01:50,0.399,0.239,0.421,0.385,0.368,0.195,0.165,north-northeast,2.4,No
2016/09/03,02:00,0.396,0.239,0.418,0.381,0.364,0.194,0.166,north-northeast,2.7,No
2016/09/03,02:10,0.393,0.237,0.415,0.382,0.363,0.195,0.168,north-northeast,2.6,No
2016/09/03,02:20,0.398,0.240,0.419,0.385,0.368,0.195,0.166,north-northeast,2.8,No
2016/09/03,02:30,0.397,0.239,0.418,0.381,0.365,0.195,0.167,north-northeast,2.6,No
2016/09/03,02:40,0.394,0.237,0.414,0.382,0.363,0.196,0.167,north-northeast,3.2,No
2016/09/03,02:50,0.396,0.239,0.421,0.383,0.367,0.196,0.166,north-northeast,3.1,No
2016/09/03,03:00,0.396,0.237,0.416,0.380,0.366,0.195,0.167,north-northeast,2.8,No
2016/09/03,03:10,0.392,0.237,0.413,0.383,0.365,0.195,0.166,north-northeast,2.7,No
2016/09/03,03:20,0.397,0.240,0.419,0.383,0.368,0.195,0.166,north-northeast,3.1,No
2016/09/03,03:30,0.398,0.238,0.417,0.380,0.366,0.195,0.167,north-northeast,3.7,No
2016/09/03,03:40,0.393,0.238,0.413,0.383,0.364,0.196,0.167,north-northeast,3.9,No
2016/09/03,03:50,0.395,0.239,0.417,0.385,0.369,0.194,0.165,north,3.6,No
2016/09/03,04:00,0.398,0.238,0.418,0.381,0.366,0.196,0.166,north-northeast,3.5,No
2016/09/03,04:10,0.394,0.238,0.415,0.381,0.364,0.195,0.166,north,3.3,No
2016/09/03,04:20,0.393,0.241,0.417,0.384,0.367,0.194,0.166,north,4.2,No
2016/09/03,04:30,0.398,0.238,0.417,0.382,0.366,0.196,0.167,north-northeast,4.1,No
2016/09/03,04:40,0.396,0.237,0.418,0.381,0.362,0.195,0.166,north,4.2,No
2016/09/03,04:50,0.393,0.240,0.413,0.385,0.368,0.194,0.165,north,4.4,No
2016/09/03,05:00,0.398,0.239,0.419,0.382,0.366,0.196,0.167,north,3.7,No
2016/09/03,05:10,0.396,0.236,0.418,0.381,0.363,0.194,0.166,north-northeast,3.9,No
2016/09/03,05:20,0.392,0.239,0.412,0.384,0.366,0.194,0.166,north,4.2,No
2016/09/03,05:30,0.396,0.239,0.418,0.382,0.366,0.194,0.166,north-northeast,3.6,No
2016/09/03,05:40,0.396,0.236,0.416,0.379,0.361,0.195,0.166,north-northeast,4.2,No
2016/09/03,05:50,0.391,0.237,0.414,0.384,0.363,0.194,0.165,north-northeast,4.2,No
2016/09/03,06:00,0.397,0.239,0.413,0.383,0.368,0.195,0.165,north-northeast,4.1,No
2016/09/03,06:10,0.395,0.236,0.418,0.379,0.363,0.195,0.166,north-northeast,4.5,No
2016/09/03,06:20,0.393,0.237,0.415,0.382,0.361,0.194,0.165,northeast,4.0,No
2016/09/03,06:30,0.392,0.238,0.414,0.384,0.366,0.194,0.164,northeast,4.6,No
2016/09/03,06:40,0.396,0.237,0.417,0.381,0.365,0.195,0.164,north-northeast,5.5,No
2016/09/03,06:50,0.395,0.236,0.416,0.378,0.362,0.195,0.165,northeast,3.6,No
2016/09/03,07:00,0.392,0.238,0.413,0.383,0.363,0.193,0.165,north-northeast,4.4,No
2016/09/03,07:10,0.395,0.238,0.413,0.381,0.366,0.194,0.165,north-northeast,5.3,No
2016/09/03,07:20,0.396,0.237,0.418,0.378,0.364,0.195,0.164,north-northeast,5.3,No
2016/09/03,07:30,0.394,0.236,0.418,0.378,0.362,0.195,0.166,north-northeast,6.7,No
2016/09/03,07:40,0.392,0.236,0.414,0.381,0.362,0.194,0.166,north,6.7,No
2016/09/03,07:50,0.396,0.236,0.411,0.382,0.366,0.194,0.166,north-northeast,6.6,No
2016/09/03,08:00,0.393,0.237,0.412,0.382,0.367,0.195,0.166,north-northeast,6.2,No
2016/09/03,08:10,0.392,0.238,0.419,0.381,0.363,0.194,0.164,north-northeast,6.4,No
2016/09/03,08:20,0.389,0.237,0.416,0.382,0.362,0.195,0.165,north-northeast,5.3,No
2016/09/03,08:30,0.391,0.237,0.413,0.380,0.362,0.193,0.165,north-northeast,4.8,No
2016/09/03,08:40,0.391,0.237,0.412,0.379,0.368,0.195,0.167,north-northeast,4.9,No
2016/09/03,08:50,0.392,0.238,0.419,0.382,0.367,0.194,0.165,north-northeast,5.6,No
2016/09/03,09:00,0.392,0.237,0.417,0.383,0.363,0.195,0.166,north-northeast,6.4,No
2016/09/03,09:10,0.393,0.237,0.414,0.382,0.364,0.194,0.166,north-northeast,6.7,No
2016/09/03,09:20,0.394,0.238,0.413,0.382,0.363,0.194,0.166,north-northeast,6.9,No
2016/09/03,09:30,0.394,0.237,0.416,0.381,0.363,0.195,0.167,north-northeast,8.1,No
2016/09/03,09:40,0.394,0.238,0.420,0.380,0.363,0.195,0.168,northeast,5.3,No
2016/09/03,09:50,0.395,0.237,0.416,0.383,0.364,0.195,0.166,northeast,4.9,No
2016/09/03,10:00,0.395,0.237,0.414,0.381,0.363,0.195,0.167,north-northeast,5.9,No
2016/09/03,10:10,0.394,0.237,0.412,0.384,0.364,0.195,0.167,north-northeast,7.2,No
2016/09/03,10:20,0.393,0.239,0.417,0.384,0.366,0.195,0.167,north-northeast,7.3,No
2016/09/03,10:30,0.395,0.238,0.421,0.384,0.364,0.195,0.167,north-northeast,6.5,No
2016/09/03,10:40,0.394,0.238,0.419,0.384,0.364,0.195,0.167,northeast,6.9,No
2016/09/03,10:50,0.394,0.238,0.416,0.384,0.364,0.195,0.167,north-northeast,8.1,No
2016/09/03,11:00,0.395,0.238,0.415,0.386,0.365,0.196,0.167,north-northeast,7.5,No
2016/09/03,11:10,0.395,0.238,0.415,0.384,0.366,0.195,0.167,northeast,6.1,No
2016/09/03,11:20,0.395,0.238,0.415,0.384,0.365,0.195,0.167,northeast,5.7,No
2016/09/03,11:30,0.397,0.238,0.418,0.384,0.366,0.195,0.167,northeast,6.1,No
2016/09/03,11:40,0.396,0.238,0.416,0.383,0.366,0.196,0.167,northeast,5.3,No
2016/09/03,11:50,0.396,0.237,0.418,0.386,0.366,0.196,0.166,northeast,6.2,No
2016/09/03,12:00,0.394,0.238,0.418,0.384,0.366,0.196,0.168,north-northeast,6.3,No
2016/09/03,12:10,0.395,0.238,0.419,0.383,0.365,0.197,0.167,north-northeast,7.8,No
2016/09/03,12:20,0.397,0.238,0.418,0.384,0.365,0.196,0.166,north-northeast,7.4,No
2016/09/03,12:30,0.395,0.240,0.418,0.383,0.366,0.196,0.168,north-northeast,6.5,No
2016/09/03,12:40,0.395,0.239,0.418,0.384,0.365,0.196,0.168,northeast,7.1,No
2016/09/03,12:50,0.395,0.239,0.416,0.382,0.364,0.195,0.167,northeast,6.4,No
2016/09/03,13:00,0.395,0.238,0.417,0.381,0.364,0.195,0.166,northeast,7.2,No
2016/09/03,13:10,0.392,0.237,0.415,0.382,0.364,0.195,0.165,north-northeast,7.5,No
2016/09/03,13:20,0.393,0.238,0.416,0.380,0.365,0.194,0.166,north-northeast,6.8,No
2016/09/03,13:30,0.393,0.238,0.414,0.382,0.364,0.194,0.166,northeast,5.6,No
2016/09/03,13:40,0.397,0.237,0.416,0.381,0.364,0.196,0.165,northeast,5.0,No
2016/09/03,13:50,0.402,0.237,0.414,0.382,0.366,0.196,0.167,northeast,4.7,No
2016/09/03,14:00,0.399,0.237,0.416,0.381,0.366,0.196,0.166,north-northeast,4.9,No
2016/09/03,14:10,0.396,0.237,0.417,0.383,0.365,0.196,0.168,northeast,5.6,No
2016/09/03,14:20,0.393,0.238,0.419,0.382,0.366,0.197,0.167,northeast,6.0,No
2016/09/03,14:30,0.394,0.238,0.418,0.382,0.366,0.197,0.167,north-northeast,5.9,No
2016/09/03,14:40,0.395,0.238,0.420,0.382,0.367,0.197,0.167,north-northeast,6.3,No
2016/09/03,14:50,0.392,0.239,0.419,0.383,0.367,0.196,0.168,northeast,6.7,No
2016/09/03,15:00,0.400,0.238,0.419,0.382,0.367,0.197,0.167,north-northeast,7.0,No
2016/09/03,15:10,0.400,0.239,0.417,0.382,0.366,0.197,0.166,north-northeast,7.3,No
2016/09/03,15:20,0.398,0.238,0.418,0.381,0.365,0.197,0.166,north-northeast,6.9,No
2016/09/03,15:30,0.395,0.237,0.417,0.385,0.365,0.195,0.166,north-northeast,7.6,No
2016/09/03,15:40,0.394,0.238,0.414,0.388,0.365,0.195,0.165,north-northeast,7.9,No
2016/09/03,15:50,0.394,0.240,0.419,0.386,0.365,0.196,0.166,north-northeast,8.1,No
2016/09/03,16:00,0.400,0.239,0.423,0.384,0.366,0.194,0.167,north-northeast,7.0,No
2016/09/03,16:10,0.399,0.239,0.420,0.382,0.365,0.195,0.167,north-northeast,6.7,No
2016/09/03,16:20,0.395,0.238,0.418,0.385,0.363,0.194,0.165,north-northeast,7.1,No
2016/09/03,16:30,0.392,0.240,0.414,0.386,0.363,0.195,0.166,north-northeast,7.0,No
2016/09/03,16:40,0.398,0.240,0.421,0.385,0.368,0.195,0.168,north-northeast,5.7,No
2016/09/03,16:50,0.399,0.238,0.422,0.381,0.368,0.195,0.168,north-northeast,5.9,No
2016/09/03,17:00,0.397,0.237,0.418,0.383,0.367,0.195,0.167,north-northeast,5.9,No
2016/09/03,17:10,0.393,0.239,0.417,0.386,0.365,0.196,0.166,north,5.0,No
2016/09/03,17:20,0.398,0.239,0.420,0.384,0.366,0.195,0.166,north,4.8,No
2016/09/03,17:30,0.397,0.238,0.421,0.381,0.369,0.196,0.167,north-northeast,4.8,No
2016/09/03,17:40,0.396,0.238,0.419,0.384,0.366,0.195,0.167,north-northeast,4.5,No
2016/09/03,17:50,0.393,0.240,0.416,0.386,0.364,0.196,0.166,north,4.4,No
2016/09/03,18:00,0.398,0.237,0.420,0.385,0.367,0.195,0.166,north-northeast,4.8,No
2016/09/03,18:10,0.400,0.238,0.421,0.383,0.368,0.195,0.168,north,4.0,No
2016/09/03,18:20,0.395,0.240,0.417,0.385,0.366,0.196,0.167,north,5.3,No
2016/09/03,18:30,0.396,0.239,0.415,0.387,0.365,0.197,0.166,north,5.2,No
2016/09/03,18:40,0.400,0.239,0.421,0.383,0.369,0.196,0.168,north,4.3,No
2016/09/03,18:50,0.399,0.240,0.419,0.383,0.365,0.195,0.167,north,4.9,No
2016/09/03,19:00,0.395,0.240,0.415,0.386,0.363,0.197,0.166,north,3.3,No
2016/09/03,19:10,0.399,0.237,0.420,0.384,0.369,0.196,0.166,north,3.3,No
2016/09/03,19:20,0.399,0.240,0.420,0.381,0.368,0.194,0.167,north,3.2,No
2016/09/03,19:30,0.397,0.240,0.417,0.385,0.364,0.196,0.166,north-northwest,3.4,No
2016/09/03,19:40,0.395,0.238,0.417,0.386,0.368,0.196,0.166,north,4.1,No
2016/09/03,19:50,0.399,0.240,0.421,0.383,0.368,0.195,0.168,north,4.1,No
2016/09/03,20:00,0.398,0.240,0.418,0.383,0.364,0.195,0.168,north,5.2,No
2016/09/03,20:10,0.394,0.239,0.416,0.388,0.365,0.196,0.166,north,5.0,No
2016/09/03,20:20,0.397,0.238,0.420,0.386,0.368,0.196,0.167,north,5.1,No
2016/09/03,20:30,0.400,0.240,0.421,0.380,0.365,0.195,0.167,north,4.8,No
2016/09/03,20:40,0.396,0.239,0.417,0.385,0.363,0.195,0.166,north,4.6,No
2016/09/03,20:50,0.394,0.238,0.416,0.387,0.369,0.196,0.167,north,5.0,No
2016/09/03,21:00,0.399,0.239,0.421,0.384,0.367,0.195,0.168,north,5.3,No
2016/09/03,21:10,0.397,0.240,0.420,0.382,0.363,0.197,0.167,north,5.1,No
2016/09/03,21:20,0.395,0.238,0.416,0.387,0.369,0.197,0.165,north,5.0,No
2016/09/03,21:30,0.395,0.240,0.420,0.385,0.368,0.196,0.167,north,4.9,No
2016/09/03,21:40,0.400,0.240,0.421,0.382,0.364,0.196,0.169,north-northwest,4.8,No
2016/09/03,21:50,0.397,0.238,0.418,0.385,0.365,0.196,0.167,north-northwest,5.0,No
2016/09/03,22:00,0.395,0.238,0.417,0.387,0.369,0.196,0.167,north-northwest,5.6,No
2016/09/03,22:10,0.398,0.240,0.421,0.383,0.366,0.195,0.168,north-northwest,5.8,No
2016/09/03,22:20,0.398,0.239,0.419,0.382,0.364,0.196,0.168,north-northwest,5.5,No
2016/09/03,22:30,0.396,0.238,0.416,0.386,0.369,0.196,0.167,north-northwest,6.1,No
2016/09/03,22:40,0.395,0.240,0.420,0.387,0.369,0.196,0.167,north-northwest,6.4,No
2016/09/03,22:50,0.399,0.239,0.422,0.382,0.365,0.196,0.168,north-northwest,5.1,No
2016/09/03,23:00,0.400,0.238,0.418,0.386,0.366,0.197,0.167,north-northwest,4.9,No
2016/09/03,23:10,0.394,0.239,0.416,0.387,0.370,0.195,0.166,north-northwest,5.0,No
2016/09/03,23:20,0.397,0.240,0.422,0.383,0.365,0.195,0.168,north-northwest,5.3,No
2016/09/03,23:30,0.400,0.239,0.420,0.382,0.363,0.196,0.167,north-northwest,5.0,No
2016/09/03,23:40,0.396,0.238,0.418,0.388,0.368,0.195,0.167,north-northwest,4.4,No
2016/09/03,23:50,0.394,0.241,0.420,0.385,0.367,0.196,0.167,north-northwest,3.8,Yes
